User: anonymous   Login
Location: Caltech
(34.1382°N, 118.1253°W)
Time: 16:32:33
(UTC-08:00)
Language:

Cosmos 2219 Rocket - Orbit

View from above orbital plane
View from above orbital plane
View from above satellite
View from above satellite

Ground track
Ground track

The orbit data is extracted from the following two-line orbital elements,

1 22220U 92076B   15057.92338895 -.00000190  00000-0 -71624-4 0  9993
2 22220 071.0007 029.9750 0010753 120.4382 304.6868 14.16352276151653
Epoch (UTC): 26 February 2015 22:09:40
Eccentricity: 0.0010753
inclination: 71.0007°
perigee height: 830 km
apogee height: 845 km
right ascension of ascending node: 29.9750°
argument of perigee: 120.4382°
revolutions per day: 14.16352276
mean anomaly at epoch: 304.6868°
orbit number at epoch: 15165

The dashed part of the orbit path shows where the satellite is in the earth's shadow,  

DLR